Location: Newark
(49.1881°N, 7.3692°E)
Time: 00:15:56
(UTC+00:00)

ISS - Visible Passes

Search period start: 22 August 2019 00:00
Search period end: 01 September 2019 00:00
Orbit: 410 x 421 km, 51.6° (Epoch: 22 August)

Date Brightness Start Highest point End Pass type
(mag) Time Alt. Az. Time Alt. Az. Time Alt. Az.
28 Aug -1.2 03:37:23 10° S 03:39:13 14° SE 03:41:02 10° ESE visible
30 Aug -2.3 03:35:23 12° SSW 03:37:58 29° SE 03:40:56 10° E visible
31 Aug -1.9 02:48:37 18° SSE 02:49:18 20° SE 02:51:48 10° E visible
